www.pogodaiklimat.ru

Погода и климат >> Архив погоды >> Россия >> Сахалинская область >> Оха


ПОГОДА в Оха

  • Прогноз погоды в Оха
  • Монитор погоды в Оха
  • Климат города

АРХИВ ПОГОДЫ в Оха

Время (UTC), дата Ветер
(напр.,м/с)
 
Видим.   Явления Облачность Т
(С)
Тd
(С)
f
(%)
Тe
(С)
Тes
(С)
Комфортность P
(гПа)
Po
(гПа)
Тmin
(С)
Tmax
(С)
R
(мм)
R24
(мм)
S
(см)
00 10.08 ЮВ 5-7
{8}
20 км {туман} 9/9 240 м
[St]
+17.7 +14.6 82 +17 +18 1014.9 1010.4
06 10.08 ЮВ 4-7
{9}
20 км 9/3 300 м
[Sc Ci fib]
+22.7 +15.0 62 +27 +29 душно 1014.3 1009.9
09 10.08 ЮВ 5-7
{10}
20 км 9/0
[Ci sp]
+16.3 +13.6 84 +15 +16 1015.3 1010.8 +23.0
12 10.08 ЮВ 4-6
{8}
1000 м дымка 10/10 90 м
[St]
+13.6 +13.4 99 +12 +12 1015.9 1011.4
18 10.08 Ю 4-6
{9}
4000 м дымка 10/10 90 м
[St]
+13.2 +13.1 99 +11 +11 1016.2 1011.6
21 10.08 ЮВ 4-7
{7}
4000 м дымка 9/9 90 м
[St]
+14.2 +13.5 96 +13 +13 1016.8 1012.3 +13.0
00 11.08 ЮВ 1-3
{7}
20 км 6/0
[Ac trans Ci sp]
+21.9 +15.2 66 +25 +34 комфорт 1017.0 1012.6
06 11.08 ЮВ 3-6
{7}
20 км 8/6 870 м
[Sc Ci sp]
+24.3 +14.4 54 +27 +29 жарко 1016.1 1011.7
09 11.08 ЮВ 3-5
{6}
20 км 6/4 1000 м
[Sc Ci sp]
+23.5 +14.0 55 +26 +26 жарко 1016.2 1011.8 +27.2
12 11.08 ЮВ 4-6
{7}
20 км 8/4 1000 м
[Sc Ci sp]
+19.1 +10.9 59 +20 +20 1017.7 1013.2
18 11.08 ЮВ 3-4
{5}
20 км 6/0
[Ci sp]
+9.4 +8.7 95 +7 +7 1017.6 1012.9
21 11.08 ЮВ 3-4
{5}
20 км 9/0
[Ci sp]
+12.6 +10.5 87 +11 +12 1018.1 1013.5 +9.3
00 12.08 Ю 4-7
{7}
20 км 8/0
[Ci sp]
+24.7 +11.0 42 +26 +31 жарко 1017.3 1012.9
06 12.08 Ю 6-9
{9}
20 км 3/0
[Ci fib]
+26.7 +11.0 37 +28 +30 жарко 1015.3 1010.9
09 12.08 ЮВ 5-7
{9}
20 км 3/0
[Ci fib]
+22.2 +12.5 54 +25 +25 комфорт 1015.6 1011.1 +28.5
12 12.08 ЮВ 3-4
{7}
20 км 3/0
[Ci fib]
+15.4 +10.4 72 +15 +15 1016.3 1011.8
15 12.08 ЮВ 4-5
{6}
н/о н/о +10.2 +9.2 94 +7 +7 1015.9 1011.3
18 12.08 ЮВ 3-4
{6}
1000 м дымка ясно +7.4 +7.3 99 +4 +4 1015.6 1010.9
21 12.08 ЮВ 3-4
{5}
4000 м дымка 1/1 100 м
[St]
+8.8 +8.7 99 +6 +7 1015.7 1011.0 +7.0
00 13.08 Ю 4-7
{8}
20 км 3/0
[Ci fib]
+22.6 +12.4 52 +25 +31 комфорт 1014.5 1010.1
06 13.08 ЮВ 5-7
{9}
20 км 3/0
[Ci fib]
+25.9 +12.6 44 +28 +31 жарко 1011.8 1007.4
09 13.08 ЮВ 3-4
{8}
20 км 4/0
[Ci fib]
+20.7 +12.6 60 +23 +24 комфорт 1011.7 1007.3 +27.3
12 13.08 Ю 1-2
{4}
20 км 3/0
[Ac trans Ci fib]
+13.7 +12.5 92 +14 +14 1011.9 1007.3
18 13.08 ЮВ 1-2
{3}
20 км 5/0
[Ci fib]
+12.4 +11.1 92 +12 +12 1010.6 1006.0
21 13.08 ЮЗ 3-4
{5}
20 км 4/0
[Ci fib]
+16.2 +12.5 79 +16 +17 1010.5 1006.0 +11.8
00 14.08 З 2-5
{6}
20 км ясно +24.1 +14.9 56 +27 +36 жарко 1009.8 1005.4
06 14.08 З 3-6
{8}
20 км 3/3 600 м
[Cu hum]
+27.7 +16.3 50 +31 +35 душно 1009.1 1004.8
09 14.08 З 3-5
{7}
20 км 4/0
[Ci fib]
+21.7 +17.1 75 +26 +26 душно 1009.7 1005.3 +27.9
12 14.08 З 4-7
{7}
4000 м дымка 10/10 90 м
[St]
+16.3 +15.8 97 +16 +16 1010.7 1006.2
18 14.08 З 3-5
{7}
4000 м дымка {ливн. осадки} 10/10 90 м
[Cb cap]
+15.7 +15.6 99 +15 +15 1011.0 1006.4
21 14.08 З 3-7
{7}
4000 м слабая морось 10/10 90 м
[St]
+15.3 +15.1 99 +15 +15 1011.2 1006.7 +15.1 0.4
00 15.08 З 2-3
{8}
4000 м слабый ливневой дождь {морось} 10/10 120 м
[Cb cap]
+15.1 +14.9 99 +15 +15 1011.8 1007.3 +15.0
06 15.08 В 3-5
{5}
4000 м в посл. час ливневой дождь 10/10 180 м
[Cb cap]
+15.9 +15.3 96 +15 +15 1012.8 1008.3
09 15.08 СВ 2-4
{6}
20 км 9/9 150 м
[St]
+15.2 +14.5 96 +15 +15 1014.2 1009.7 +16.7 0.4
12 15.08 В 1-2
{6}
4000 м дымка 10/10 90 м
[St]
+13.3 +13.2 99 +13 +13 1015.5 1010.9
18 15.08 СВ 2-4
{5}
4000 м слабая морось 10/10 90 м
[St]
+13.1 +12.9 99 +12 +12 1016.2 1011.6
21 15.08 СВ 3-5
{5}
1000 м морось {ливн. осадки} 10/10 60 м
[St]
+13.2 +13.1 99 +12 +12 1017.1 1012.5 +12.8 1
00 16.08 В 4-6
{7}
2000 м в посл. час туман {ливн. осадки, морось} 10/10 90 м
[St]
+13.9 +13.8 99 +12 +12 1017.5 1012.9
06 16.08 СВ 2-4
{5}
20 км слабый ливневой дождь 10/10 150 м
[Cb cap]
+13.3 +12.9 97 +12 +12 1017.7 1013.1
09 16.08 СВ 3-4
{5}
20 км {ливн. осадки} 10/10 180 м
[Cb cap]
+13.7 +13.1 96 +12 +12 1017.6 1013.0 +14.0 0.4
12 16.08 В 1-2
{5}
4000 м дымка {ливн. осадки} 10/10 120 м
[Cb cap]
+13.0 +12.8 99 +13 +13 1017.6 1013.0
18 16.08 В 1-2
{5}
20 км {ливн. осадки} 10/10 150 м
[Cb cap]
+11.9 +11.7 99 +12 +12 1018.0 1013.4
21 16.08 В 2-3
{4}
4000 м дымка 10/10 120 м
[St]
+12.0 +11.7 98 +11 +11 1018.0 1013.4 +11.7 0.4

 

Местоположение метеостанции Оха (Сахалинская область, Россия): широта 53.50 долгота 142.90 высота над уровнем моря 37 м.

В архиве по умолчанию представлена погода в Оха за последнюю неделю. Архивные данные за месяц целиком и за предыдущие месяцы, начиная с января 2011 года, Вы можете получить, выбрав интересующий диапазон дат из раскрывающегося списка и нажав кнопку "Ввод!".

Внимание! Время в таблицах - всемирное. Для получения местного времени необходимо прибавить поправку, которая в Оха равна 11 ч.

Смотрите также архив погоды в соседних городах и на ближайших метеорологических станциях:

Погода в Одопту (Сахалинская область, Россия) (23 км)
Погода в Москальво (Сахалинская область, Россия) (28 км)
Погода в Ныврово (Сахалинская область, Россия) (94 км)
Погода в Байдукове (Хабаровский край, Россия) (102 км)
Погода в Вал (Сахалинская область, Россия) (130 км)
Погода в Джаоре (Хабаровский край, Россия) (146 км)
Погода в Николаевск-на-Амуре (Хабаровский край, Россия) (151 км)
Погода в Погибях (Сахалинская область, Россия) (167 км)
Погода в Ногликах (Сахалинская область, Россия) (176 км)
Погода в Литке (Хабаровский край, Россия) (178 км)

Пояснения к столбцам:

Ветер - указаны скорость ветра в м/с - средняя за 10 мин, порывы в срок и между сроками (в фигурных скобках) и направление, откуда дует ветер: С - северный, СВ - северо-восточный, В - восточный, ЮВ - юго-восточный, Ю - южный, ЮЗ - юго-западный, З - западный, СЗ - северо-западный.
Видимость - горизонтальная дальность видимости в метрах или километрах. При видимости от 1 до 10 км при отсутствии осадков обычно наблюдается дымка, при ухудшении видимости до 1 км и менее - туман. В сухую погоду видимость может ухудшаться дымом, пылью или мглою.
Явления - указаны атмосферные явления, наблюдавшиеся в срок или в последний час перед сроком; фигурными скобками обозначены явления, наблюдавшиеся между сроками (за 1-3 часа до срока); квадратными скобками обозначены град или гололедные отложения с указанием их диаметра в мм.
Облачность - указаны через наклонную черту общая и нижняя облачность в баллах и высота нижней границы облаков в метрах; квадратными скобками обозначены формы облаков: Ci - перистые, Cs - перисто-слоистые, Cc - перисто-кучевые, Ac - высококучевые, As - высокослоистые, Sc - слоисто-кучевые, Ns - слоисто-дождевые, Cu - кучевые, Cb - кучево-дождевые. Подробнее классификацию облаков см. в Атласе облаков (PDF).
T - Температура воздуха - температура, измеренная на высоте 2 м над землей.
Td - Температура точки росы - температура, при понижении до которой содержащийся в воздухе водяной пар достигнет насыщения.
f - Относительная влажность воздуха - влажноcть воздуха, измеренная на высоте 2 м над землей.
Te - Эффективная температура - температура, которую ощущает одетый по сезону человек в тени. Характеристика душности погоды. При расчете учитывается влияние влажности воздуха и скорости ветра на теплоощущения человека.
Tes - Эффективная температура на солнце - температура, которую ощущает человек, с поправкой на солнечный нагрев. Характеристика знойности погоды. Зависит от высоты солнца над горизонтом, облачности и скорости ветра. Ночью, в пасмурную погоду, а также при ветре 12 м/с и более поправка равна нулю.
P - Атмосферное давление - приведенное к уровню моря атмосферное давление.
Po - Атмосферное давление - измеренное на уровне метеостанции атмосферное давление.
Tmin - Минимальная температура - минимум температуры воздуха на высоте 2 м над землей.
Tmax - Максимальная температура - максимум температуры воздуха на высоте 2 м над землей.
R - Количество осадков - Количество выпавших осадков за период времени, мм. При наведении курсора мыши на число - период времени, за который выпало указанное количество осадков.
R24 - Количество осадков - Количество выпавших осадков за 24 часа, мм.
S - Снежный покров - Высота снежного покрова, см. При наведении курсора мыши на число - состояние снежного покрова и степень покрытия местности в баллах.